Location: ?????????
(54.7630°N, 39.4991°E)
Time: 14:36:49
(UTC+00:00)

Daily predictions for brighter satellites

Satellite Brightness Start Highest point End
(mag) Time Altitude Azimuth Time Altitude Azimuth Time Altitude Azimuth
MetOp-B 4.4 16:53:46 10° SE 16:58:59 56° ENE 17:04:15 10° N
SJ-6B 4.3 16:56:21 10° SSW 16:59:47 37° W 17:03:12 10° NNW
CZ-4B R/B 3.8 16:58:03 10° SSE 17:01:42 83° WSW 17:05:31 10° NNW
Cosmos 2369 Rocket 3.9 17:01:00 10° NNW 17:05:20 22° NNE 17:09:40 10° ENE
Feng Yun 1-1 Rocket 4.2 17:02:55 10° SSE 17:08:28 81° ENE 17:13:57 10° NNW
CSL-04 Rocket 4.1 17:03:11 10° S 17:08:42 73° WSW 17:14:17 10° NNW
Cosmos 372 Rocket 4.5 17:04:57 10° SW 17:10:10 69° WNW 17:15:25 10° NNE
Meteor 1-21 Rocket 4.4 17:05:54 10° N 17:11:26 57° ENE 17:17:02 10° SSE
Cosmos 2074 Rocket 4.3 17:05:45 10° SSW 17:11:59 74° WNW 17:18:18 10° N
NOSS 2-3 (C) 4.5 17:07:55 10° NW 17:12:37 65° SW 17:19:06 10° SE
MOS 1 4.3 17:08:20 10° SSE 17:13:57 79° ENE 17:19:39 10° NNW
Cosmos 1898 Rocket 3.7 17:08:46 10° SSW 17:14:01 81° WNW 17:19:15 10° NNE
COBE Rocket 4.4 17:09:21 10° N 17:14:15 67° WNW 17:19:15 10° SSW
NOSS 2-1 (E) 4.1 17:11:57 10° NW 17:14:46 31° NNE 17:17:56 10° E
Cosmos 2278 Rocket 2.3 17:11:34 10° NNW 17:17:17 73° NE 17:22:57 10° SE
NOSS 2-1 (C) 3.9 17:14:41 10° NW 17:17:30 34° NNE 17:20:47 10° E
NOSS 2-1 (D) 3.8 17:15:14 10° NW 17:18:06 37° NNE 17:21:29 10° E
CZ-4B R/B 3.3 17:12:56 10° SSE 17:18:29 76° ENE 17:24:10 10° NNW
CZ-4B DEB 4.3 17:13:22 10° SSE 17:18:49 84° WSW 17:24:22 10° NNW
COSMOS 2428 3.1 17:14:16 10° S 17:19:35 41° ESE 17:24:55 10° NE
USA 234 3.4 17:13:46 10° ENE 17:20:10 52° SE 17:26:32 10° SW
SL-8 Rocket 4.2 17:15:35 10° SSE 17:21:34 51° E 17:27:39 10° NNE
BREEZE-M DEB (TANK) 3.5 17:20:17 10° SSW 17:22:16 23° SSE 17:25:18 10° E
Cosmos 1703 Rocket 4.4 17:19:03 10° NNW 17:23:15 52° W 17:27:25 10° S
BREEZE-M DEB (TANK) 3.0 17:21:17 10° WSW 17:23:19 27° S 17:25:12 13° ESE
Cosmos 1680 Rocket 4.2 17:20:29 10° NNW 17:25:35 54° WSW 17:30:37 10° S
Cosmos 1378 Rocket 4.3 17:22:55 10° N 17:27:00 35° ENE 17:30:36 12° SE
USA 238 DEB 4.0 17:19:55 10° NW 17:27:07 86° NE 17:34:38 12° SE
USA 238 4.0 17:20:05 10° NW 17:27:18 86° NE 17:34:48 12° SE
Cosmos 1943 Rocket 2.3 17:23:18 10° NW 17:29:01 85° WSW 17:34:42 10° SSE
ADEOS 3.6 17:24:02 10° SSE 17:29:15 85° ENE 17:34:30 10° NNW
Cosmos 1470 Rocket 4.5 17:25:14 10° SSW 17:29:30 53° WNW 17:33:47 10° N
PAYLOAD B 4.4 17:25:08 10° SSE 17:30:38 78° WSW 17:36:11 10° NNW
Cosmos 1937 Rocket 3.7 17:25:26 10° SSW 17:30:44 79° WNW 17:36:04 10° NNE
Cosmos 2333 Rocket 3.7 17:27:27 10° WSW 17:32:47 40° NW 17:38:08 10° NNE
IRS-1A Rocket 4.3 17:27:19 10° SSE 17:32:52 75° ENE 17:38:35 10° NNW
Cosmos 2366 rocket 4.1 17:27:34 10° SSE 17:33:33 55° E 17:39:32 10° NNE
Cosmos 2327 Rocket 4.5 17:30:40 10° S 17:36:51 79° E 17:43:11 10° NNE
Cosmos 1933 Rocket 3.6 17:32:28 10° S 17:36:52 89° WNW 17:41:18 10° NNE
Terra 2.0 17:37:19 10° S 17:42:01 76° WSW 17:46:44 10° NNW
In-Cosmos 22 Rocket 4.4 17:39:03 10° NNW 17:44:23 68° W 17:49:38 10° S
Cosmos 1733 Rocket 3.6 17:43:46 10° SSE 17:47:49 39° E 17:51:54 10° NNE
Aureole 3 3.8 17:44:01 10° N 17:48:10 59° ENE 17:52:30 14° SSE
SPOT 3 Rocket 4.1 17:44:39 15° SE 17:48:40 45° ENE 17:53:35 10° N
SL-16 R/B 4.1 17:49:54 10° E 17:49:56 10° E 17:50:58 10° E
YAOGAN 11 4.4 17:46:57 10° NNE 17:50:59 41° E 17:55:01 10° S
SKYMED 3 4.2 17:48:41 10° NNE 17:52:35 70° ESE 17:56:27 10° S
Helios 1A Rocket 3.1 17:49:51 10° N 17:53:03 54° WNW 17:56:12 10° SSW
Ariane Rocket 3.7 17:49:33 16° ESE 17:53:03 39° ENE 17:57:43 10° N
Geosat 3.9 17:49:56 10° NE 17:54:56 65° ESE 17:59:54 10° SSW
SL-08 R/B 3.4 17:50:41 10° NNE 17:55:33 64° ESE 18:00:26 10° S
Lacrosse 5 rocket 0.5 17:54:39 10° WSW 17:57:50 70° SSE 18:00:59 10° ENE
ERS-1 Rocket 3.7 17:53:23 10° S 17:58:14 52° W 18:03:10 10° NNW
Cosmos 614 Rocket 4.0 17:54:13 10° NNW 17:59:26 75° ENE 18:03:13 19° SE
Cosmos 2360 Rocket 3.7 17:54:58 10° WSW 18:00:15 39° NW 18:05:34 10° NNE
Spot 2 Rocket 3.5 17:56:24 12° SSE 18:01:09 89° W 18:06:13 10° NNW
Meteor 2-21 4.4 17:56:25 10° N 18:02:34 84° ENE 18:08:22 12° SSE
Cosmos 2218 Rocket 3.9 17:57:03 10° S 18:03:11 79° E 18:09:22 10° NNE
Meteor 1-11 4.1 17:59:16 10° NNW 18:04:52 86° E 18:09:39 14° SSE
Cosmos 1959 Rocket 4.5 17:59:11 10° S 18:05:31 78° E 18:11:51 10° NNE
Cosmos 1025 Rocket 3.4 18:02:06 10° N 18:06:12 47° ENE 18:08:31 23° SE
SeaSat 1 3.6 18:03:22 14° E 18:06:51 32° NE 18:11:11 10° NNW
Cosmos 1869 Rocket 4.0 18:02:37 10° SSW 18:06:58 65° WNW 18:11:24 10° N
ATLAS 3B R/B 3.8 18:00:34 10° W 18:08:14 53° NNW 18:15:56 10° NE
ATLAS 5 CENTAUR R/B 3.3 18:05:51 10° NW 18:08:30 21° N 18:11:30 10° NE
Okean-O 2.7 18:05:34 14° S 18:09:18 79° WSW 18:13:42 10° NNW
Cosmos 2322 Rocket 4.0 18:05:25 10° WSW 18:10:29 34° NW 18:15:35 10° NNE
NOSS 3-4 (A) 3.5 18:07:11 10° S 18:12:05 39° ESE 18:17:30 10° ENE
Cosmos 1821 Rocket 4.0 18:06:03 10° S 18:12:15 69° E 18:18:34 10° NNE
NOSS 3-4 (C) 3.6 18:07:40 10° S 18:12:36 39° ESE 18:18:02 10° ENE
USA 186 1.8 18:15:48 29° SSW 18:16:30 41° W 18:18:38 10° NNW
CZ-4B R/B 3.4 18:13:46 22° SE 18:16:52 66° ENE 18:21:37 10° NNW
USA 32 4.0 18:11:58 10° S 18:17:12 88° E 18:22:29 10° N
NOSS 3-1 (C) 4.2 18:13:27 10° NW 18:19:37 57° NNE 18:26:02 16° ESE
Cosmos 1400 Rocket 2.7 18:18:06 27° SSE 18:19:46 50° E 18:23:17 10° NNE
CZ-4 R/B 3.9 18:17:24 10° SW 18:19:59 17° W 18:22:33 10° NW
CZ-4B R/B 2.4 18:18:47 29° SSE 18:20:30 75° ENE 18:23:58 10° NNW
Helios 1B rocket 4.2 18:19:53 13° ENE 18:20:51 14° NE 18:22:50 10° NNE
Cosmos 2237 Rocket 2.3 18:17:07 10° S 18:22:36 52° ESE 18:28:08 10° NE
Cosmos 1980 3.7 18:18:14 10° S 18:23:43 56° ESE 18:29:14 10° NE
ASTEX 1 3.3 18:21:31 18° S 18:25:09 85° E 18:30:06 10° N
CZ-2C R/B 2.1 18:25:11 45° ESE 18:25:46 57° ENE 18:28:39 10° N
ARIANE 6 FM1 Upper Stage 3.9 18:22:04 10° W 18:25:56 40° NNW 18:29:45 10° NE
Okean O Rocket 2.3 18:25:01 14° S 18:28:39 51° W 18:32:55 10° NNW
Cosmos 1000 Rocket 4.4 18:22:47 10° N 18:29:02 78° ENE 18:33:15 22° SSE
Cosmos 2297 4.4 18:24:25 10° NNW 18:29:58 45° NE 18:33:21 22° ESE
Cosmos 2242 Rocket 4.2 18:25:39 10° NNW 18:30:03 54° W 18:33:38 15° S
USA 245 3.7 18:28:00 24° SSE 18:30:32 85° WSW 18:35:39 10° NNW
Cosmos 2322 4.0 18:25:30 10° SW 18:31:12 70° NW 18:36:57 10° NNE
Cosmos 1602 3.6 18:30:35 10° N 18:32:23 33° NE 18:32:23 33° NE
Cosmos 1975 Rocket 4.4 18:30:21 10° N 18:34:10 27° ENE 18:35:30 23° E
Cosmos 2219 Rocket 3.9 18:29:36 10° WSW 18:34:44 36° NW 18:39:54 10° NNE
Meteor 2-21 Rocket 4.5 18:30:54 10° NNW 18:37:02 81° W 18:41:36 19° S
USA 59 Rocket -0.1 18:34:04 10° WNW 18:37:14 54° SW 18:38:25 36° SSE
Cosmos 1346 Rocket 2.4 18:34:32 10° NNW 18:38:10 86° ENE 18:39:22 40° SSE
RESURS DK-1 2.9 18:42:08 35° ESE 18:42:08 35° ESE 18:45:32 10° NE
NOSS 0 Rocket 3.9 18:38:00 10° SSW 18:44:15 90° NW 18:50:32 10° NE
Cosmos 1674 Rocket 3.7 18:42:37 10° NNW 18:46:55 66° W 18:49:09 27° S
Cosmos 2369 Rocket 2.4 18:44:55 10° NNW 18:50:29 61° NE 18:53:07 31° ESE
Cosmos 1908 Rocket 3.7 18:51:54 41° SE 18:53:02 54° E 18:57:16 10° NNE
Cosmos 405 Rocket 3.1 18:55:50 10° N 18:58:14 34° NE 18:58:14 34° NE
Cosmos 1125 Rocket 3.4 18:55:00 14° SSW 18:59:30 78° ESE 19:04:47 10° NNE
Cosmos 2278 Rocket 3.8 18:56:13 10° NW 19:00:53 27° WSW 19:05:01 12° SSW
Cosmos 1782 Rocket 4.2 19:01:50 36° E 19:02:03 36° E 19:06:00 10° NNE
Cosmos 1656 Rocket 3.7 18:56:51 10° NW 19:02:16 68° WSW 19:04:39 34° S
Cosmos 2263 4.4 18:57:41 10° NNW 19:03:16 60° NE 19:05:44 33° ESE
SJ 16-02 3.6 19:00:49 10° N 19:03:25 15° NE 19:05:32 11° ENE
USA 234 3.3 18:56:56 10° ENE 19:03:31 86° NNW 19:10:06 10° WSW
NOSS 2-1 (E) 3.5 19:00:28 10° WNW 19:03:36 47° SW 19:03:59 45° SSW
COSMOS 2428 3.6 18:58:10 10° SW 19:03:45 52° NW 19:09:22 10° NNE
IRS-1C Rocket 4.3 19:01:19 28° S 19:04:08 65° WSW 19:09:25 10° NNW
NOSS 2-1 (C) 3.7 19:03:15 10° WNW 19:06:19 40° SW 19:06:39 39° SSW
SL-08 R/B 4.4 19:02:36 24° S 19:06:27 80° E 19:12:35 10° NNE
NOSS 2-1 (D) 4.0 19:03:43 10° WNW 19:06:45 36° SW 19:07:06 35° SW
Cosmos 1943 Rocket 4.3 19:08:05 10° WNW 19:11:58 19° W 19:15:49 10° SW
Meteor 2-8 Rocket 4.5 19:07:23 17° SSW 19:12:09 80° WNW 19:18:15 10° N
NOSS 3-1 (A) 4.2 19:06:45 10° NW 19:13:00 58° NNE 19:18:50 19° ESE
DNEPR-1 R/B 3.6 19:10:02 10° SW 19:14:14 79° NW 19:18:49 10° NE
Cosmos 2221 Rocket 3.9 19:10:35 10° NNW 19:14:54 59° W 19:16:27 36° SSW
Cosmos 921 Rocket 3.9 19:15:43 10° NNW 19:19:54 37° NE 19:20:52 33° E
Terra 4.4 19:18:11 10° WSW 19:20:22 13° W 19:22:33 10° NW
COSMOS 2455 3.6 19:20:15 10° NW 19:26:05 48° NE 19:29:24 24° E
Cosmos 2150 Rocket 4.1 19:28:19 49° SE 19:28:59 52° ESE 19:34:02 10° NE
Ariane Rocket 3.9 19:29:37 26° SSW 19:31:57 41° W 19:36:43 10° NNW
SL-16 R/B 2.3 19:31:42 46° SSE 19:32:45 53° ESE 19:38:15 10° NE
SWAS 4.3 19:30:05 10° NNW 19:34:09 69° NE 19:34:27 65° E
Lacrosse 5 rocket 1.4 19:31:25 10° W 19:34:17 53° NNW 19:34:17 53° NNW
Cosmos 2058 2.9 19:32:34 10° N 19:36:28 60° ENE 19:36:28 60° ENE
Cosmos 44 4.3 19:37:56 33° E 19:37:56 33° E 19:41:41 10° NE
Cosmos 2346 Rocket 4.4 19:32:52 10° N 19:39:02 81° ENE 19:41:07 44° SSE
Cosmos 1315 Rocket 3.4 19:40:41 42° ENE 19:40:41 42° ENE 19:43:35 10° NNE
Cosmos 1300 Rocket 3.4 19:42:33 65° SSW 19:43:09 83° WNW 19:47:29 10° N
IKONOS-2 4.5 19:39:06 10° NNE 19:42:56 60° E 19:42:56 60° E
TSX-5 4.5 19:38:41 10° SW 19:43:24 59° NW 19:47:18 10° NNE
SeaSat 1 2.5 19:42:58 54° S 19:43:58 70° WSW 19:48:53 10° NW
Helios 1A 3.0 19:40:54 10° NNE 19:44:31 59° ENE 19:44:31 59° ENE
Cosmos 1934 Rocket 4.1 19:42:07 28° SSW 19:45:40 73° WNW 19:51:55 10° N
Cosmos 1447 Rocket 4.4 19:43:48 10° N 19:50:09 85° E 19:52:10 47° SSE
Cosmos 2084 Rocket 3.4 19:50:04 42° WSW 19:51:23 77° NW 19:55:33 10° NE
ATLAS 5 CENTAUR R/B 2.7 19:48:04 10° NW 19:51:26 34° NNE 19:53:07 24° ENE
Cosmos 1869 3.5 19:53:24 54° WNW 19:53:24 54° WNW 19:56:51 10° N
Helios 1B rocket 2.4 19:53:53 62° NW 19:53:53 62° NW 19:56:57 10° NNW
Meteor 2-3 Rocket 4.4 19:49:23 10° N 19:54:44 41° ENE 19:56:10 35° E
Cosmos 371 Rocket 4.0 19:51:17 10° NNW 19:55:56 45° NE 19:56:56 39° E
Cosmos 407 Rocket 3.8 19:51:46 10° NNW 19:56:52 57° ENE 19:57:57 47° ESE
ATLAS 3B R/B 4.1 19:53:00 10° WNW 20:00:30 44° N 20:07:53 10° ENE
NOSS 3-4 (A) 3.6 19:57:14 10° WSW 20:02:38 64° NNW 20:08:50 10° NE
NOSS 3-4 (C) 3.6 19:57:42 10° WSW 20:03:09 64° NNW 20:09:22 10° NE
Cosmos 1140 Rocket 3.4 19:58:20 10° NNW 20:03:30 76° WSW 20:04:15 63° S
Cosmos 2237 Rocket 3.4 20:01:25 10° WSW 20:06:49 43° NW 20:12:16 10° NNE
CZ-2C R/B 4.4 20:03:18 10° NNE 20:06:55 39° ENE 20:06:55 39° ENE
NOSS 3-1 (C) 4.0 20:04:03 10° NW 20:10:43 64° SW 20:13:20 43° SSE
Cosmos 1975 Rocket 3.6 20:07:49 10° NNW 20:12:06 47° W 20:12:31 46° WSW
Cosmos 1459 Rocket 4.5 20:12:01 41° ESE 20:13:12 46° E 20:19:12 10° NNE
Cosmos 2285 Rocket 4.0 20:10:28 33° SW 20:13:33 81° WNW 20:19:56 10° NNE
Cosmos 2297 4.2 20:08:42 10° NW 20:14:13 48° WSW 20:15:15 43° SW
Cosmos 1356 Rocket 3.5 20:15:18 68° NNE 20:15:18 68° NNE 20:18:54 10° NNE
Okean 1 Rocket 4.5 20:16:43 26° ENE 20:16:43 26° ENE 20:19:42 10° NNE
ALOS 2 2.7 20:17:13 63° ENE 20:17:16 63° ENE 20:21:38 10° N
RESURS DK-1 3.6 20:17:16 22° W 20:19:14 37° NW 20:22:58 10° NNE
Cosmos 1605 Rocket 4.1 20:17:09 40° SSW 20:19:23 70° WNW 20:25:31 10° N
Cosmos 2298 Rocket 4.1 20:20:41 45° SW 20:22:16 73° WNW 20:27:38 10° NNE
Cosmos 1656 4.3 20:18:12 10° NNW 20:23:29 48° NE 20:25:13 36° E
Cosmos 1862 4.4 20:22:43 10° NNW 20:25:31 34° WNW 20:25:31 34° WNW
ARIANE 5 R/B 2.5 20:26:44 84° NNW 20:26:44 84° NNW 20:30:58 10° NNW
Spot 4 3.6 20:32:16 81° SSW 20:32:26 84° WSW 20:37:13 10° NNW
Cosmos 1818 4.2 20:27:34 10° NW 20:32:57 54° NNE 20:35:11 33° E
Cosmos 2369 Rocket 3.2 20:29:18 10° NW 20:34:12 32° WSW 20:34:53 31° WSW
Cosmos 2173 Rocket 3.9 20:38:04 58° SSE 20:39:05 68° E 20:45:10 10° NNE
ACS3 Solar Sail 4.0 20:39:07 10° ENE 20:41:02 11° ENE 20:42:58 10° E
SJ 16-02 1.5 20:38:02 10° NNW 20:42:01 66° NNE 20:42:01 66° NNE
USA 234 3.4 20:39:56 10° E 20:46:29 75° N 20:53:02 10° W
Cosmos 1190 Rocket 4.1 20:42:12 10° NNW 20:47:31 67° ENE 20:48:16 58° ESE
Cosmos 2100 Rocket 3.9 20:47:41 60° S 20:48:51 81° E 20:55:04 10° NNE
MetOp-A 3.8 20:49:22 72° ESE 20:49:42 76° ENE 20:54:48 10° NNW
Cosmos 1697 Rocket 4.0 20:44:35 10° NNW 20:49:47 35° NE 20:53:12 19° E
Cosmos 1943 3.0 20:52:38 70° S 20:53:13 78° ESE 20:58:55 10° NE
Cosmos 2360 4.4 20:47:39 10° NNW 20:53:20 65° NE 20:54:45 48° ESE
Meteor 2-1 Rocket 4.3 20:53:51 59° SE 20:54:33 64° E 21:00:19 10° NNE
Cosmos 921 Rocket 4.2 20:53:54 10° NW 20:57:26 34° W 20:57:26 34° W
NOSS 3-1 (A) 3.9 20:57:24 10° NW 21:04:09 64° SW 21:06:11 49° S
CZ-2C R/B 2.9 21:03:23 54° ESE 21:04:23 65° ENE 21:09:49 10° NNW
BREEZE-M R/B 4.3 20:57:40 10° WSW 21:06:23 60° S 21:11:57 10° E
Cosmos 1980 Rocket 4.0 21:01:32 10° NNW 21:06:25 28° NNE 21:11:18 10° E
Cosmos 332 Rocket 4.1 21:07:02 10° NNW 21:11:50 56° ENE 21:12:20 53° E
COSMOS 2455 2.9 21:06:18 10° NW 21:12:12 57° WSW 21:12:30 56° SW
Cosmos 304 Rocket 4.3 21:07:53 10° NW 21:11:56 46° W 21:11:56 46° W
Cosmos 2228 4.3 21:15:35 31° ENE 21:15:35 31° ENE 21:18:44 10° NNE
SL-16 R/B 3.2 21:13:28 20° WSW 21:17:02 42° NW 21:22:26 10° NNE
Cosmos 44 3.8 21:16:10 42° W 21:17:48 63° NW 21:23:10 10° NE
Cosmos 2251 Rocket 3.4 21:13:48 10° NNW 21:19:07 74° WSW 21:19:17 73° SW
Cosmos 968 Rocket 4.1 21:14:47 10° NNW 21:19:51 51° NE 21:21:08 41° E
Cosmos 676 Rocket 4.0 21:14:34 10° NNW 21:19:55 75° ENE 21:20:32 66° ESE
Cosmos 1420 Rocket 4.2 21:20:22 56° ESE 21:20:22 56° ESE 21:25:25 10° NNE
Cosmos 1954 Rocket 3.8 21:16:59 10° NNW 21:22:17 85° WSW 21:22:29 81° SSW
Cosmos 1864 Rocket 4.4 21:23:06 59° SSW 21:24:24 84° WNW 21:30:47 10° N
Cosmos 2151 Rocket 4.1 21:27:43 50° WNW 21:27:43 50° WNW 21:31:55 10° N
SL-08 R/B 4.3 21:29:44 63° S 21:30:49 83° E 21:37:02 10° NNE
ATLAS 5 CENTAUR R/B 2.5 21:29:50 10° NW 21:32:15 38° WNW 21:32:15 38° WNW
Cosmos 1725 Rocket 4.0 21:33:54 58° SSW 21:35:15 79° WNW 21:41:37 10° N
Cosmos 371 Rocket 4.4 21:31:41 10° NW 21:35:22 33° W 21:35:22 33° W
Cosmos 1802 Rocket 4.0 21:35:01 55° SW 21:36:26 73° WNW 21:42:45 10° N
CZ-2C R/B 2.9 21:31:33 10° NNE 21:36:36 77° ESE 21:36:52 74° SE
Cosmos 2056 Rocket 4.0 21:36:55 46° ESE 21:37:00 46° ESE 21:42:10 10° NE
Okean 2 Rocket 3.6 21:37:25 52° WNW 21:37:25 52° WNW 21:41:37 10° N
Meteor 2-3 Rocket 4.3 21:32:42 10° NNW 21:37:57 41° W 21:38:25 41° WSW
Cosmos 1782 4.0 21:40:09 34° NE 21:40:09 34° NE 21:42:23 10° NNE
Cosmos 1626 Rocket 4.0 21:36:45 10° N 21:40:49 54° ENE 21:40:49 54° ENE
Cosmos 1892 Rocket 4.1 21:40:30 10° NNW 21:44:16 50° WNW 21:44:16 50° WNW
ARIANE 6 FM1 Upper Stage 3.5 21:41:31 10° NW 21:45:23 47° NNE 21:45:58 43° NE
Cosmos 1624 Rocket 4.3 21:46:57 52° ESE 21:46:59 52° ESE 21:52:01 10° NE
ATLAS 3B R/B 3.3 21:44:41 10° NW 21:52:34 65° NNE 22:00:07 10° ESE
Okean 1 Rocket 3.9 21:53:44 41° WNW 21:53:44 41° WNW 21:57:45 10° N
ALOS 2 4.5 21:54:36 20° W 21:54:36 20° W 21:57:19 10° NW
Cosmos 1833 Rocket 3.6 21:54:11 33° ESE 21:54:33 33° ESE 21:59:31 10° NE
Cosmos 2233 Rocket 3.9 21:53:29 58° SSW 21:54:50 81° W 22:01:10 10° N
USA 281 3.5 21:54:57 26° SE 21:58:50 65° NE 22:05:21 10° NNW
USA 229 DEB 4.0 21:53:47 10° NW 22:01:00 78° NE 22:09:07 10° SE
USA 229 4.0 21:53:50 10° NW 22:01:04 78° NE 22:09:11 10° ESE
Sich 1 Rocket 4.5 22:02:13 39° WNW 22:02:14 39° WNW 22:06:24 10° N
Meteor 1-27 4.2 22:04:31 62° SW 22:05:30 78° WNW 22:11:19 10° NNE
Cosmos 1656 4.2 22:01:58 10° NW 22:06:36 40° W 22:06:36 40° W
ATLAS 2AS CENTAUR R/B 3.5 22:08:25 33° SE 22:09:32 35° ESE 22:15:35 10° ENE
Meteor 1-20 Rocket 4.1 22:04:07 10° NNW 22:09:37 77° ENE 22:10:43 57° SE
Cosmos 2151 3.1 22:07:07 10° N 22:11:02 69° NE 22:11:02 69° NE
Cosmos 2016 Rocket 4.5 22:10:46 41° WSW 22:12:31 51° WNW 22:18:44 10° N
Cosmos 1455 Rocket 3.5 22:12:41 50° WNW 22:12:41 50° WNW 22:16:55 10° N
Landsat 5 3.6 22:09:31 10° NNE 22:13:28 68° NW 22:13:28 68° NW
ARGOS Delta rocket 4.5 22:09:59 10° N 22:14:05 39° WNW 22:14:19 39° WNW
Cosmos 2061 Rocket 4.0 22:14:38 52° SW 22:16:03 69° WNW 22:22:16 10° N
Cosmos 1818 4.0 22:11:17 10° NW 22:15:46 44° W 22:15:46 44° W
DELTA 2 DEB (DPAF) 4.3 22:13:39 10° NNE 22:16:28 51° N 22:16:28 51° N
Nadezhda 4 Rocket 4.1 22:11:13 10° N 22:17:25 70° ENE 22:19:34 42° SSE
Aureole 3 Rocket 3.1 22:17:35 77° W 22:17:39 77° WNW 22:23:09 10° N
Cosmos 1464 Rocket 4.4 22:16:22 40° SE 22:18:12 54° E 22:24:10 10° NNE
Cosmos 292 Rocket 3.6 22:13:42 10° NNW 22:18:29 78° WSW 22:18:29 78° WSW
Cosmos 1371 Rocket 3.8 22:18:24 71° S 22:18:59 85° ESE 22:24:18 10° NNE
SJ 16-02 3.5 22:17:00 10° NW 22:18:30 16° WNW 22:18:30 16° WNW
Cosmos 1544 Rocket 3.7 22:19:57 66° E 22:19:57 66° E 22:24:21 10° NNE
CZ-4C R/B 4.4 22:16:46 10° N 22:18:46 34° N 22:18:46 34° N
Cosmos 1758 Rocket 3.6 22:18:29 10° NNW 22:22:20 64° NW 22:22:20 64° NW
Meteor 1-22 4.5 22:17:48 10° NNW 22:23:12 72° W 22:23:47 65° SW
Cosmos 1805 4.3 22:21:25 10° N 22:23:57 34° NE 22:23:57 34° NE
ACS3 Solar Sail 2.2 22:18:57 10° NNE 22:24:50 54° E 22:26:41 40° SSE
Cosmos 1603 4.1 22:23:25 41° WSW 22:25:07 57° NW 22:30:45 10° NNE
Cosmos 1741 Rocket 3.9 22:23:38 10° NNW 22:28:57 84° WSW 22:29:51 63° SSE
USA 234 3.1 22:22:59 10° ESE 22:29:33 80° SSW 22:36:08 10° WNW
Cosmos 1697 Rocket 2.6 22:28:32 10° NW 22:34:09 66° WSW 22:34:53 59° SSW
Cosmos 1452 Rocket 4.2 22:37:06 38° SE 22:38:06 43° ESE 22:43:01 10° NE
Meteor 2-10 4.4 22:32:50 10° N 22:38:09 62° ENE 22:40:25 34° SE
Cosmos 1513 Rocket 4.5 22:40:26 49° SSW 22:42:20 82° WNW 22:48:44 10° N
CZ-2C R/B 3.8 22:44:49 27° W 22:45:00 27° W 22:49:41 10° NNW
IDEFIX/ARIANE 42P 3.3 22:40:28 10° NNE 22:45:24 42° E 22:46:59 33° SE
Cosmos 2369 4.4 22:39:58 10° NNW 22:45:34 53° NE 22:51:08 10° SE
Cosmos 2026 Rocket 4.1 22:43:59 10° N 22:50:12 71° ENE 22:53:28 30° SSE
Cosmos 1980 Rocket 2.1 22:45:26 10° NNW 22:51:12 87° ENE 22:54:15 29° SE
Cosmos 2333 Rocket 4.0 22:46:18 10° NNW 22:51:21 32° NE 22:56:23 10° E
Cosmos 1825 Rocket 3.5 22:47:28 10° N 22:51:48 74° ENE 22:52:21 63° SE
Cosmos 2228 4.0 22:51:49 33° WNW 22:51:53 33° WNW 22:55:44 10° N
Cosmos 1437 Rocket 3.2 22:53:42 47° ENE 22:53:42 47° ENE 22:56:40 10° NNE
Cosmos 1092 Rocket 4.2 22:47:11 10° N 22:53:22 65° ENE 22:56:55 26° SSE
Cosmos 1602 Rocket 3.6 22:50:00 10° NNW 22:54:05 58° W 22:54:05 58° W
Cosmos 1076 Rocket 3.9 22:50:41 10° N 22:54:59 60° ENE 22:56:05 44° SE
Cosmos 968 Rocket 4.3 22:56:45 10° NW 23:01:01 33° W 23:01:01 33° W
Spot 1 3.7 22:57:34 10° NNE 23:01:37 80° WNW 23:01:50 76° WSW
Resurs 1-4 Rocket 4.1 22:58:57 10° NE 23:02:57 21° E 23:06:56 10° SE
Okean 1-7 Rocket 3.4 23:00:25 10° NNW 23:04:47 72° W 23:05:05 68° SW
Meteor 1-25 Rocket 4.4 23:02:46 10° NNW 23:08:29 56° W 23:09:53 45° SW
H-2A R/B 3.9 23:11:23 12° ESE 23:14:15 30° ENE 23:17:28 10° N
ADEOS Rocket 4.0 23:10:49 10° NNE 23:17:55 55° E 23:23:11 21° S
Cosmos 2360 Rocket 4.1 23:12:59 10° NNW 23:18:00 31° NE 23:23:01 10° E
Cosmos 2056 Rocket 4.4 23:17:08 29° W 23:19:10 41° NW 23:24:18 10° NNE
Cosmos 2082 Rocket 3.4 23:18:10 22° SSE 23:20:57 34° ESE 23:26:03 10° NE
GP-B 3.0 23:17:00 10° N 23:21:23 78° W 23:22:13 57° SSW
ARIANE 6 FM1 Upper Stage 4.4 23:20:36 10° WNW 23:21:54 19° WNW 23:21:54 19° WNW
Cosmos 1634 Rocket 4.2 23:24:32 26° S 23:28:04 66° E 23:34:12 10° NNE
Cosmos 2322 Rocket 3.8 23:23:13 10° NNW 23:28:23 35° NE 23:33:32 10° ESE
Cosmos 1302 Rocket 4.1 23:29:11 38° S 23:31:08 67° ESE 23:36:17 10° NNE
BREEZE-M DEB (TANK) 4.4 23:09:33 10° WSW 23:32:13 64° S 23:37:21 10° ESE
Cosmos 1627 Rocket 4.5 23:26:43 10° NNW 23:32:53 68° W 23:36:00 31° S
USA 267 3.5 23:26:57 10° ENE 23:33:26 57° SE 23:36:26 32° SSW
Cosmos 2058 Rocket 3.8 23:33:31 27° SSE 23:35:37 50° E 23:39:55 10° NNE
MOZ.5/SAFIR/RUBIN 5/SL-8 3.7 23:33:16 29° SSE 23:35:42 90° NNE 23:40:24 10° NNW
Cosmos 2237 4.2 23:31:10 10° NW 23:36:56 89° ENE 23:42:41 10° SSE
Cosmos 1536 3.0 23:33:45 10° N 23:37:24 60° ENE 23:38:58 30° SE
Gbstr 26 Del rocket 2.8 23:38:00 52° SSE 23:38:00 52° SSE 23:41:32 10° E
Cosmos 1833 Rocket 2.9 23:35:50 34° WSW 23:38:12 60° NW 23:43:47 10° NNE
Cosmos 1606 Rocket 3.6 23:37:08 47° SW 23:38:12 65° WNW 23:42:38 10° N
SL-16 R/B 2.9 23:33:17 10° NNW 23:38:54 56° NE 23:44:28 10° SE
Cosmos 1933 4.2 23:39:14 31° WNW 23:39:29 31° WNW 23:42:55 10° N
SL-4 R/B 2.0 23:42:00 49° S 23:42:03 49° S 23:45:46 10° E
ATLAS 3B R/B 3.0 23:35:48 10° NW 23:43:23 54° SW 23:50:33 10° SSE
FENGYUN 3A 3.6 23:38:05 10° NNE 23:43:34 86° ESE 23:46:15 31° SSW
USA 281 3.7 23:41:47 31° SW 23:43:42 37° WSW 23:49:45 10° NW
Cosmos 1331 Rocket 4.4 23:41:51 34° WSW 23:43:56 55° WNW 23:49:08 10° NNE
Envisat 3.9 23:39:31 10° NNE 23:44:22 43° E 23:47:59 17° SSE
Cosmos 1867 3.7 23:44:20 35° SSW 23:46:37 66° SE 23:52:03 10° NE
CZ-4C R/B 3.1 23:47:13 21° SSE 23:49:13 29° ESE 23:53:48 10° ENE
Cosmos 1766 2.6 23:46:05 10° NNW 23:49:18 88° E 23:49:49 60° SSE
NOAA 11 4.4 23:46:04 10° NNE 23:51:30 69° ESE 23:54:53 24° S
USA 229 DEB 4.3 23:44:50 10° NW 23:51:44 42° WSW 23:59:15 10° S
USA 229 4.3 23:44:53 10° NW 23:51:48 42° WSW 23:59:21 10° S
Cosmos 2098 Rocket 4.2 23:49:40 31° WSW 23:51:49 44° WNW 23:57:17 10° N
Cosmos 2219 Rocket 4.0 23:47:15 10° NNW 23:52:19 33° NE 23:57:23 10° ESE
CZ-2D R/B 3.1 23:47:59 10° NNE 23:52:57 42° E 23:57:19 13° SSE
